Cloud_Cover
44 17 18 15 15 19 51 100 64 27 14 13 92 82 67 26 100 100 100 100 100 100 100 100 100 100 100 98 93 95 98 100 100 100 100 100 100 96 24 34 100 100 100
10 20 26 19 18 7 28 36 38 29 16 14 6 25 10 5 100 100 100 100 100 100 100 100 100 100 100 100 99 100 90 78 100 100 98 85 100 100 96 77 100 100 100
5 8 16 39 12 18 22 34 35 35 34 17 8 10 9 5 100 100 100 100 100 100 100 100 98 100 100 100 97 100 100 86 100 100 93 100 100 100 100 100 98 100 100
5 47 59 14 22 38 25 44 83 81 42 50 29 34 27 42 97 100 100 100 100 100 100 100 100 100 100 100 100 100 97 98 100 100 99 100 100 100 100 100 100 100 100
8 100 78 13 12 40 57 72 100 100 100 100 96 66 62 66 100 100 100 100 100 100 100 100 91 100 97 100 100 100 63 91 100 100 100 100 80 100 99 100 100 100 100
33 100 91 41 17 100 97 88 100 100 100 100 100 92 78 98 98 100 100 100 100 100 100 100 100 100 100 100 100 100 99 78 100 100 100 100 100 100 85 100 99 100 100
76 58 55 20 40 100 100 100 100 100 100 100 100 100 100 100 100 100 100 100 100 100 100 100 100 100 100 100 100 100 100 100 100 100 100 100 100 100 86 100 100 100 99
10 83 42 18 45 100 100 97 100 100 100 100 100 100 100 100 100 100 100 100 100 100 100 100 100 100 100 100 100 100 100 100 100 100 100 100 100 100 100 100 100 98 96
94 72 69 20 41 36 100 100 85 100 100 100 100 100 100 100 100 100 100 100 100 100 100 100 100 100 100 100 100 100 98 100 100 100 100 100 100 100 100 100 99 91 100
100 100 84 22 32 58 82 100 67 100 100 100 100 100 91 100 100 100 100 100 100 100 100 100 100 100 100 100 100 100 100 100 100 100 100 100 100 100 99 100 100 100 100
100 83 19 27 36 36 15 44 81 100 100 100 100 98 100 100 100 100 100 100 100 100 100 100 100 100 100 100 100 100 100 100 100 100 100 100 100 100 100 100 99 100 100
97 95 44 35 30 28 13 18 87 100 100 97 97 68 100 100 100 100 100 100 100 100 100 100 100 100 100 100 100 100 100 100 100 100 100 100 100 100 100 100 100 97 100
88 64 83 78 69 34 61 48 99 100 91 92 100 100 100 100 100 100 100 100 100 100 100 100 100 100 100 100 100 100 100 100 100 100 100 100 100 100 100 100 100 100 100
77 100 99 89 100 57 85 100 100 100 84 100 100 100 100 100 100 100 100 100 100 100 100 100 100 97 100 100 100 100 100 100 100 100 100 100 100 100 100 98 100 100 100
32 100 100 100 90 97 92 100 100 100 100 100 100 100 100 100 100 100 100 100 100 100 100 100 100 100 94 100 100 100 100 100 100 100 100 100 100 100 100 100 100 100 100
98 100 100 100 100 99 100 100 100 100 100 100 90 100 100 100 100 100 100 100 100 100 100 100 100 100 100 100 100 100 100 100 100 100 100 100 100 100 100 100 100 100 100
100 100 100 100 100 100 97 100 100 93 100 100 96 100 100 100 100 100 100 100 100 100 100 100 100 100 100 100 100 100 100 100 100 100 100 100 100 100 100 100 100 100 100
100 100 100 100 100 100 100 100 100 100 100 100 100 100 100 100 100 100 100 100 100 100 100 100 100 100 100 100 100 100 100 100 100 100 100 100 100 100 100 100 100 100 100
100 100 100 100 100 100 100 100 100 100 100 100 100 100 100 100 100 100 100 100 100 100 100 100 100 100 100 100 100 100 100 100 100 100 100 100 100 100 100 100 100 100 100
100 100 100 100 100 100 100 100 100 100 100 100 100 100 100 100 100 100 100 100 100 100 100 100 100 100 100 100 100 100 100 100 100 100 100 100 100 100 100 100 100 100 85
100 100 100 100 100 100 100 100 100 100 100 100 100 100 100 100 100 99 98 100 100 100 100 100 100 100 100 100 100 100 100 100 100 100 97 100 100 100 100 100 100 100 95
100 100 100 100 100 100 100 100 100 100 100 100 100 100 100 100 100 100 100 100 100 100 100 100 100 100 100 97 100 100 100 100 100 93 98 100 100 100 100 100 100 100 100
100 100 100 100 100 100 100 100 100 100 100 100 100 100 100 100 100 100 100 100 100 100 100 100 100 100 99 100 100 100 100 64 82 86 99 100 100 100 100 100 100 100 100
100 100 100 100 100 100 100 100 96 100 100 100 100 100 100 100 100 100 100 100 100 100 100 100 100 100 100 100 100 75 57 95 100 100 100 100 100 100 100 100 100 100 100
100 100 100 100 100 100 100 100 100 100 100 100 100 100 100 100 100 100 100 100 100 100 100 100 100 100 100 100 100 100 100 100 100 100 100 100 100 100 100 100 100 100 100
100 100 100 100 100 100 100 100 100 100 100 100 100 100 100 100 100 100 100 100 100 100 100 100 100 100 100 100 100 100 100 100 100 100 100 100 100 100 100 100 100 100 100